| time (UTC) | temp F | wind direction | speed MPH | gust MPH | rain 1hr in | rain 24hr in | rain mn in | humidity % | barometer mb |
| 20260504204527 | 82 | 247 | 8.0 | 15.0 | 0.00 | 0.00 | 0.00 | 29 | 1002.1 |
| 20260504203015 | 82 | 240 | 4.0 | 15.0 | 0.00 | 0.00 | 0.00 | 29 | 1002.3 |
| 20260504201509 | 81 | 275 | 6.0 | 18.0 | 0.00 | 0.00 | 0.00 | 31 | 1002.4 |
| 20260504200008 | 81 | 204 | 6.0 | 14.0 | 0.00 | 0.00 | 0.00 | 31 | 1002.5 |
| 20260504194507 | 80 | 259 | 8.0 | 18.0 | 0.00 | 0.00 | 0.00 | 30 | 1002.6 |
| 20260504193005 | 79 | 232 | 8.0 | 16.0 | 0.00 | 0.00 | 0.00 | 33 | 1002.6 |
| 20260504191502 | 79 | 245 | 8.0 | 19.0 | 0.00 | 0.00 | 0.00 | 32 | 1002.6 |
| 20260504190002 | 79 | 193 | 7.0 | 13.0 | 0.00 | 0.00 | 0.00 | 33 | 1002.6 |
| 20260504184602 | 79 | 266 | 5.0 | 13.0 | 0.00 | 0.00 | 0.00 | 33 | 1002.7 |
| 20260504183103 | 78 | 238 | 9.0 | 16.0 | 0.00 | 0.00 | 0.00 | 34 | 1002.9 |
| 20260504181552 | 77 | 232 | 7.0 | 17.0 | 0.00 | 0.00 | 0.00 | 35 | 1003.0 |
| 20260504180105 | 77 | 209 | 8.0 | 13.0 | 0.00 | 0.00 | 0.00 | 34 | 1003.0 |
| 20260504174548 | 75 | 261 | 10.0 | 14.0 | 0.00 | 0.00 | 0.00 | 35 | 1003.3 |
| 20260504173058 | 75 | 273 | 7.0 | 19.0 | 0.00 | 0.00 | 0.00 | 35 | 1003.3 |
| 20260504171545 | 75 | 267 | 4.0 | 14.0 | 0.00 | 0.00 | 0.00 | 36 | 1003.4 |
| 20260504081536 | 63 | 225 | 1.0 | 3.0 | 0.00 | 0.00 | 0.00 | 43 | 1006.1 |
| 20260504050010 | 68 | 149 | 7.0 | 11.0 | 0.00 | 0.00 | 0.00 | 39 | 1007.6 |
| 20260504044514 | 70 | 24 | 7.0 | 19.0 | 0.00 | 0.00 | 0.00 | 35 | 1009.4 |
| 20260504043013 | 69 | 350 | 4.0 | 11.0 | 0.00 | 0.00 | 0.00 | 37 | 1009.5 |
| 20260504041527 | 70 | 20 | 1.0 | 5.0 | 0.00 | 0.00 | 0.00 | 36 | 1008.3 |
| 20260504040010 | 70 | 100 | 5.0 | 14.0 | 0.00 | 0.00 | 0.00 | 35 | 1008.5 |
| 20260504034509 | 67 | 163 | 4.0 | 8.0 | 0.00 | 0.00 | 0.00 | 40 | 1008.8 |
| 20260504033006 | 67 | 95 | 3.0 | 6.0 | 0.00 | 0.00 | 0.00 | 42 | 1009.4 |
| 20260504031505 | 69 | 97 | 2.0 | 4.0 | 0.00 | 0.00 | 0.00 | 38 | 1009.2 |
| 20260504030004 | 70 | 97 | 1.0 | 6.0 | 0.00 | 0.00 | 0.00 | 36 | 1008.9 |
| 20260504024504 | 70 | 82 | 2.0 | 4.0 | 0.00 | 0.00 | 0.00 | 36 | 1008.9 |
| 20260504023004 | 69 | 55 | 0.0 | 3.0 | 0.00 | 0.00 | 0.00 | 37 | 1009.0 |
| 20260504021503 | 69 | 55 | 0.0 | 1.0 | 0.00 | 0.00 | 0.00 | 38 | 1009.0 |
| 20260504020006 | 70 | 55 | 1.0 | 3.0 | 0.00 | 0.00 | 0.00 | 37 | 1008.7 |
| 20260504014501 | 71 | 55 | 0.0 | 1.0 | 0.00 | 0.00 | 0.00 | 37 | 1008.7 |
| 20260504013133 | 72 | 55 | 0.0 | 2.0 | 0.00 | 0.00 | 0.00 | 37 | 1008.5 |
| 20260504011559 | 73 | 55 | 1.0 | 2.0 | 0.00 | 0.00 | 0.00 | 35 | 1008.6 |
| 20260504010100 | 74 | 55 | 0.0 | 2.0 | 0.00 | 0.00 | 0.00 | 32 | 1008.7 |
| 20260504004557 | 75 | 55 | 0.0 | 3.0 | 0.00 | 0.00 | 0.00 | 30 | 1008.7 |
| 20260504003056 | 76 | 55 | 1.0 | 3.0 | 0.00 | 0.00 | 0.00 | 28 | 1008.8 |
| 20260504001555 | 77 | 44 | 1.0 | 5.0 | 0.00 | 0.00 | 0.00 | 27 | 1008.9 |
| 20260504000055 | 79 | 39 | 2.0 | 6.0 | 0.00 | 0.00 | 0.00 | 26 | 1009.1 |
| 20260503234553 | 80 | 32 | 1.0 | 9.0 | 0.00 | 0.00 | 0.00 | 23 | 1009.2 |
| 20260503233052 | 80 | 11 | 3.0 | 9.0 | 0.00 | 0.00 | 0.00 | 23 | 1009.1 |
| 20260503231551 | 80 | 355 | 5.0 | 10.0 | 0.00 | 0.00 | 0.00 | 23 | 1009.2 |
| 20260503230049 | 81 | 300 | 3.0 | 11.0 | 0.00 | 0.00 | 0.00 | 22 | 1009.4 |
| 20260503224557 | 81 | 284 | 3.0 | 8.0 | 0.00 | 0.00 | 0.00 | 22 | 1009.4 |
| 20260503223047 | 81 | 344 | 4.0 | 10.0 | 0.00 | 0.00 | 0.00 | 24 | 1009.5 |
| 20260503221557 | 81 | 40 | 3.0 | 10.0 | 0.00 | 0.00 | 0.00 | 24 | 1009.6 |
| 20260503220043 | 82 | 344 | 3.0 | 11.0 | 0.00 | 0.00 | 0.00 | 22 | 1009.8 |
| 20260503214543 | 81 | 317 | 3.0 | 13.0 | 0.00 | 0.00 | 0.00 | 22 | 1009.9 |
| 20260503213045 | 81 | 274 | 4.0 | 12.0 | 0.00 | 0.00 | 0.00 | 24 | 1010.1 |
| 20260503211540 | 81 | 275 | 6.0 | 13.0 | 0.00 | 0.00 | 0.00 | 24 | 1010.2 |
| 20260503210039 | 81 | 294 | 1.0 | 9.0 | 0.00 | 0.00 | 0.00 | 26 | 1010.5 |